Back to catalog

STARLINK-4033

AliveCommunicationsVLEO
NORAD 52702·PAYLOAD·🇺🇸 United States

Launched May 18, 2022 from Cape Canaveral Space Force Station

Loading…

Next Passes (next 24 hours)

TLE

FreshSource: CelesTrak SupGP

Epoch: Sep 15, 2026, 01:36 UTC

1 52702C 22053AY  26258.06715278 -.00027052  00000+0 -79942-3 0  2586
2 52702  53.1605  13.1297 0001103  94.0428 286.0770 15.34398338    11

Track STARLINK-4033 in real time with AllMySat

Download on the App Store